sat.trackr.live / text

‹ back to catalog

UNKNOWN

NORAD 89029

UNKNOWN UNKNOWN UNKNOWN

§ Identity

Operator
Country
Launch date
Launch site
Launch vehicle
Mass (kg)
RCS (m²)

External: N2YO · Heavens-Above

§ Orbital elements

Epoch: 2026-09-15T23:44:37.084704Z

Period
96.17 min
Inclination
98.0303°
Eccentricity
0.0022918
Mean motion
14.97406856 rev/d
Perigee alt
559.0 km
Apogee alt
590.8 km
Semi-major
6,953.0 km
B*
3.3608e-4
RAAN
170.6726°
Arg perigee
121.4674°
Mean anomaly
238.8791°
Rev number
69,253

§ Raw data

UNKNOWN1 89029U          26258.98931811  .00003866  00000+0  33608-3 0  99962 89029  98.0303 170.6726 0022918 121.4674 238.8791 14.97406856692532

JSON: /api/v1/satellites/89029 · /tle

For live sub-satellite position, see the globe view (requires WebGL).

§ Visibility from observer

Set your observer location to see the next 7 days of passes ≥ 10°. The values pass through the URL so the page stays shareable.

No JS? Fill the form by hand. The geolocation button needs JavaScript.